Terminal Aerodrome Forecast
Issued by NWS

Home | Current Version | Previous Version | Text Only | Print | Product List | Glossary On
Versions: 1 2 3 4 5 6 7 8 9 10 11 12 13 14 15 16 17 18 19 20 21 22 23 24 25 26 27 28
000
FTUS45 KREV 162300 RRA
TAFTRK
TAF
KTRK 162353Z 1700/1724 24014G24KT 5SM FU HZ SCT020 SCT060
     FM170400 24007KT P6SM SCT180
     FM171600 24008G18KT P6SM SCT180
     FM172000 23012G22KT P6SM SCT180
      AMD NOT SKED 1702/1712=

USA.gov is the U.S. government's official web portal to all federal, state and local government web resources and services.